Wind_Speed
17 17 17 16 15 13 12 11 12 13 13 13 12 13 14 15 16 16 16 16 17 18 19 19 20 21 21 21 21 21 21 21 21 21 21 21 20 20 19 19 18 19 18 19 20 20 21 22 22 23 23 24 25 25 25 25 24 25 25 24 23 23 22
17 16 17 16 14 14 13 13 14 14 15 14 14 13 13 15 16 17 17 16 17 17 18 19 20 21 21 22 22 22 22 22 21 21 21 20 20 19 18 18 17 17 17 18 18 19 19 20 21 22 23 22 23 24 24 24 24 24 24 23 24 24 24
17 16 16 15 14 15 15 16 17 17 17 17 16 14 14 15 16 17 18 17 17 17 18 19 20 21 21 22 22 22 22 22 22 21 20 20 19 18 18 17 17 16 16 16 17 18 18 19 19 20 21 18 17 19 21 22 23 23 22 23 23 25 25
17 16 16 15 15 16 17 19 19 18 18 17 16 16 15 15 16 17 18 19 19 18 18 19 20 20 21 21 22 22 22 22 22 21 20 19 18 17 17 16 16 16 16 16 16 17 17 18 18 19 20 19 18 20 20 20 21 22 23 23 24 25 26
16 15 15 16 16 17 18 19 18 16 15 15 15 16 16 15 16 17 18 19 19 19 19 19 19 20 21 21 22 22 22 22 22 21 20 19 18 17 16 15 15 15 15 16 16 16 16 17 18 19 20 21 22 23 22 22 22 22 23 24 25 26 27
15 15 15 16 17 17 18 19 19 16 15 15 15 16 16 16 15 15 17 19 20 20 20 20 19 20 20 21 22 22 22 22 22 21 20 19 18 17 16 15 15 15 15 15 15 15 16 16 18 18 19 20 21 22 22 22 21 21 22 23 24 25 26
14 14 15 16 17 17 17 18 20 20 18 17 16 16 16 15 15 15 16 18 19 20 20 20 20 20 20 21 21 22 22 22 22 21 20 19 18 17 16 16 15 14 14 14 14 15 15 16 17 18 18 19 19 20 20 20 20 21 21 22 23 24 25
16 16 16 16 17 18 18 20 22 24 21 17 15 14 14 14 14 14 15 16 18 19 19 19 19 19 20 20 21 21 22 22 21 21 19 18 17 16 15 15 14 14 13 13 14 14 14 15 16 16 17 18 18 18 19 19 19 20 20 21 22 23 24
17 17 16 15 16 18 20 22 24 25 23 18 15 14 13 12 12 13 14 15 16 16 17 17 18 18 19 19 19 20 20 21 21 20 19 18 16 15 14 14 13 13 13 12 13 13 14 14 15 15 16 16 17 17 17 17 18 18 19 20 21 21 22
14 13 13 14 15 18 20 22 24 24 23 20 17 15 14 12 12 13 13 13 14 15 15 16 16 16 17 18 18 19 19 20 20 20 19 18 16 15 14 13 13 12 12 12 12 12 13 13 14 14 15 15 15 15 15 15 16 16 17 18 19 19 20
14 13 14 15 17 19 20 21 22 23 23 21 18 16 14 13 12 13 13 13 13 14 14 15 15 16 16 17 17 18 18 19 19 20 19 18 17 16 14 14 13 13 13 12 12 12 12 13 13 13 13 14 14 13 13 13 13 14 15 16 17 17 17
15 15 15 15 16 18 19 19 20 21 21 20 18 17 15 14 13 14 14 13 13 13 14 14 15 15 16 16 17 17 17 18 18 18 19 18 17 16 15 14 13 13 14 14 14 14 14 14 13 13 13 13 13 12 12 12 12 12 13 14 15 15 15
14 14 14 13 14 15 17 19 20 19 19 20 20 19 17 15 14 13 13 11 11 12 13 14 15 15 15 15 15 15 15 16 16 16 16 17 17 16 16 15 14 14 14 14 15 15 15 15 15 15 14 14 13 13 12 12 11 12 12 13 14 14 14
13 13 13 13 14 14 17 18 18 18 19 20 20 18 16 15 14 13 12 10 10 11 13 15 16 16 16 15 15 15 15 14 14 15 15 15 15 16 16 16 16 15 15 16 16 16 16 16 16 15 15 15 14 14 14 14 14 13 13 14 14 15 15
13 14 14 14 15 16 18 19 19 18 19 19 19 17 15 15 14 14 13 12 11 11 12 13 14 15 15 15 15 15 15 15 14 14 15 15 16 16 16 17 17 17 17 18 18 18 18 17 17 16 16 16 16 16 16 16 16 16 16 16 16 16 17
15 16 16 17 17 18 20 21 20 20 20 19 19 18 16 16 16 17 16 14 13 12 12 13 13 14 15 16 16 16 16 16 16 16 16 16 17 18 18 18 18 19 19 19 19 19 20 19 19 18 18 17 17 17 18 18 18 18 18 18 18 18 18
15 16 17 17 18 18 19 20 20 21 21 20 19 18 18 18 18 18 17 16 15 14 14 15 16 16 17 18 19 19 19 19 19 19 18 18 18 19 19 20 21 21 21 20 20 20 21 21 21 20 19 19 19 19 19 19 19 19 19 19 20 20 21
16 17 17 17 17 16 17 18 20 21 20 20 19 19 19 19 19 19 18 18 17 17 17 17 17 17 17 18 19 20 21 21 22 21 20 20 20 20 21 21 22 23 23 23 23 23 23 23 23 22 22 21 21 21 22 21 21 21 21 21 21 22 22
16 17 18 17 16 15 15 16 18 19 20 21 21 19 19 20 20 19 19 20 20 21 21 20 19 19 18 18 19 19 20 21 22 23 23 23 23 23 23 23 23 24 24 25 25 26 26 25 25 25 25 24 24 24 24 24 24 24 24 24 24 24 24
17 17 18 17 16 15 14 15 17 20 21 22 21 20 19 20 21 21 21 22 23 23 22 21 21 21 21 21 21 20 20 20 21 22 23 24 24 24 24 24 24 24 24 26 27 27 27 27 27 27 26 26 27 27 26 26 26 26 25 25 25 26 27
17 17 17 18 18 17 16 16 17 19 20 21 21 20 20 20 21 22 23 23 23 23 22 22 22 22 22 23 23 23 23 24 23 23 24 24 24 24 24 24 25 25 25 26 27 27 27 28 27 26 25 25 25 26 26 26 26 25 25 26 27 28 29
19 18 18 19 20 20 20 19 19 20 21 22 22 22 22 22 23 23 24 23 23 23 22 22 23 23 24 25 26 27 27 27 27 27 26 26 26 27 27 27 27 27 28 29 29 29 29 29 29 28 25 25 25 26 27 27 28 29 30 30 30 31 31
22 21 20 20 22 23 24 23 22 21 22 23 24 25 27 27 26 26 26 25 25 25 25 25 24 25 26 27 29 30 30 31 30 30 29 29 30 31 31 30 29 30 31 32 32 32 33 33 32 31 30 29 30 30 31 32 34 35 36 36 35 35 35
25 25 24 25 25 26 27 27 26 24 24 26 28 30 31 30 29 28 28 28 28 28 28 28 28 28 28 29 30 31 32 33 34 32 31 31 32 32 32 32 33 34 35 35 35 36 36 37 37 36 36 36 36 37 38 38 39 40 41 41 40 40 40
28 29 29 29 29 30 30 30 29 29 29 30 31 32 32 32 32 31 31 30 30 30 31 31 31 31 31 32 32 32 33 34 34 34 33 33 33 34 34 35 36 37 37 38 39 38 37 37 39 39 39 40 41 42 42 42 43 43 44 44 44 45 45
33 33 33 33 34 35 33 32 33 34 34 33 33 33 33 33 33 33 33 33 33 33 33 33 34 34 34 34 34 35 34 34 34 34 34 34 35 35 35 36 36 37 38 39 41 41 40 41 42 43 43 43 44 44 45 45 45 46 47 48 48 49 50
38 38 38 39 39 39 38 38 38 38 37 36 36 36 35 35 35 35 36 36 36 36 36 36 36 36 36 36 36 36 36 35 35 35 35 35 35 35 36 36 37 38 39 40 41 41 42 44 45 45 46 47 47 48 48 48 49 49 50 51 52 53 53
41 42 42 42 42 41 41 41 41 40 39 38 38 37 37 36 36 36 37 38 39 39 39 39 39 39 40 40 39 38 37 36 36 35 35 36 37 38 38 38 38 38 39 40 41 42 43 44 45 45 46 47 48 49 49 50 50 51 51 52 53 53 54
43 43 43 42 42 42 41 41 41 41 41 41 40 39 39 38 38 39 40 41 41 41 41 41 41 42 42 42 42 41 39 38 38 37 37 38 39 40 41 41 40 40 40 40 41 42 43 44 44 45 46 47 48 49 50 51 51 52 53 53 53 54 54
41 41 41 41 41 41 41 42 42 43 43 43 43 42 42 42 42 42 43 43 43 43 43 42 42 43 43 43 43 42 41 40 40 40 41 41 41 42 42 42 42 41 41 41 42 42 43 44 45 45 46 47 48 49 50 51 52 52 53 54 54 54 55
35 36 37 38 39 40 40 41 42 42 43 43 43 43 43 43 43 43 42 43 43 43 43 43 43 43 44 44 43 43 43 42 42 42 42 43 43 43 43 43 43 43 43 43 43 43 44 44 45 46 46 47 48 49 50 51 51 52 52 53 53 54 54
32 33 33 34 35 36 36 38 39 41 41 41 41 41 42 42 41 41 40 41 42 43 44 44 44 44 44 44 44 44 43 42 42 42 43 44 44 44 44 44 43 43 43 44 44 44 44 45 45 46 47 47 48 49 49 50 51 51 51 51 52 52 52
36 35 35 34 34 33 34 36 39 40 41 42 43 43 43 43 42 41 41 42 44 45 45 45 44 43 43 43 43 44 43 43 43 44 45 46 46 46 45 45 44 44 44 44 44 44 44 45 45 46 47 47 48 48 49 49 49 49 49 49 49 49 50
46 43 42 42 41 40 41 41 42 41 41 42 43 44 45 45 44 43 43 44 44 44 44 43 42 42 42 42 43 44 45 46 47 48 48 48 47 47 46 45 45 44 44 43 43 44 44 45 45 46 46 47 47 48 48 48 47 47 47 47 47 47 47
55 52 49 49 49 48 47 46 45 44 44 44 45 45 45 45 46 46 46 46 46 46 45 44 44 44 45 46 48 48 50 51 52 52 51 49 47 47 47 46 45 44 44 43 43 44 44 45 45 45 45 46 46 47 47 46 46 46 46 46 46 45 45
56 54 52 52 52 53 53 51 49 47 47 47 47 47 47 47 48 49 49 49 49 49 49 49 50 50 52 53 53 54 54 54 54 53 51 49 48 47 46 46 45 45 44 44 44 44 44 44 44 45 45 45 45 46 45 45 45 45 45 44 44 44 45
54 54 54 54 55 56 57 57 57 56 54 53 52 52 52 52 52 53 53 54 54 54 55 55 56 57 57 56 56 55 55 54 53 52 51 49 48 47 46 45 45 45 45 44 44 45 45 45 44 44 45 45 45 45 44 44 44 44 44 44 44 44 44
Wind_Direction
257 255 256 263 268 268 265 265 268 268 267 266 267 271 275 277 277 273 271 269 269 268 267 266 266 266 267 267 267 267 267 267 266 267 268 268 269 269 268 267 265 264 264 263 264 265 263 263 261 260 259 260 261 262 262 262 262 263 265 265 265 266 265
259 256 254 259 264 269 271 270 270 270 270 269 267 270 276 279 280 279 276 273 271 270 269 268 266 265 265 265 266 266 267 267 267 267 267 267 268 268 269 268 267 266 263 260 260 260 261 261 261 260 261 261 263 263 262 261 261 263 262 262 262 262 262
255 252 249 251 257 266 273 274 271 270 270 271 271 272 276 280 282 281 279 275 272 270 268 268 267 265 263 263 263 264 264 265 265 265 265 265 266 266 267 268 267 266 264 261 259 257 257 258 258 260 262 263 263 263 262 262 262 262 261 261 260 260 262
250 246 241 242 252 265 274 275 273 271 268 268 270 271 273 277 280 282 281 278 274 270 267 266 266 265 264 262 261 260 261 261 262 262 263 264 265 267 267 268 268 266 265 265 263 262 262 262 262 262 263 262 259 260 264 267 265 263 262 261 259 259 260
243 240 237 240 252 265 271 271 271 269 264 263 266 267 268 269 273 278 280 279 276 272 269 266 266 266 266 265 262 261 260 259 260 261 262 263 265 267 269 269 269 268 267 267 266 266 265 265 265 264 264 264 264 265 267 269 268 265 264 262 261 260 260
237 238 241 246 256 264 267 267 267 263 259 263 267 267 265 265 267 272 274 276 275 273 270 268 267 267 268 268 267 265 263 262 262 262 263 264 266 268 270 271 271 271 270 269 268 268 267 265 265 263 263 263 264 266 268 269 268 266 265 264 263 263 262
236 239 245 251 257 260 265 269 268 265 263 264 266 266 265 264 266 267 268 269 269 269 269 268 268 267 267 268 268 267 266 264 264 264 265 267 268 270 271 273 274 274 274 273 272 270 269 268 267 266 266 265 265 266 268 268 267 266 264 263 263 263 263
241 245 248 252 252 254 263 270 270 269 267 263 262 264 264 265 265 265 264 264 264 264 265 266 267 267 268 268 268 268 268 267 267 266 267 268 269 271 272 273 275 276 276 276 274 273 272 271 270 270 269 270 270 270 269 269 268 267 265 263 262 262 262
247 248 248 248 250 254 263 270 269 269 268 266 266 268 266 263 262 261 260 259 259 260 261 263 265 266 268 269 269 270 270 270 269 269 269 269 269 271 272 273 274 275 275 275 275 275 274 274 274 274 273 274 275 275 274 273 272 270 268 266 264 263 263
241 238 236 242 251 258 265 269 267 267 270 273 273 272 269 266 263 258 253 252 252 253 255 257 259 262 265 267 269 270 271 271 271 271 270 269 269 270 271 274 275 275 276 275 276 276 276 276 276 277 278 278 279 280 279 278 276 275 273 271 269 268 267
232 229 234 244 251 255 261 266 267 267 271 276 275 272 269 268 266 255 246 244 245 246 247 248 251 254 257 261 264 267 269 271 272 272 272 270 270 271 272 274 275 276 276 275 275 275 276 277 277 279 281 283 284 285 285 284 282 279 277 275 274 273 272
232 232 236 241 244 248 253 258 262 265 270 274 275 274 272 268 262 253 246 244 246 249 250 251 252 252 254 256 259 264 266 268 271 272 273 273 272 272 272 273 275 277 278 277 276 275 275 275 276 277 280 282 285 287 288 288 286 283 280 279 277 277 277
233 234 236 239 240 244 247 250 254 259 266 272 274 276 273 264 256 248 245 248 256 263 264 262 259 256 256 257 258 262 264 266 268 269 270 272 272 273 273 272 273 275 277 279 279 279 278 278 278 278 279 281 283 284 284 283 281 278 276 274 274 275 275
237 239 242 245 243 239 238 241 248 256 264 269 273 275 268 259 250 238 235 245 256 265 268 266 263 259 258 259 258 258 258 259 262 264 267 269 271 272 273 274 274 274 275 275 276 276 277 277 277 277 278 279 280 281 281 279 277 274 272 271 271 271 272
240 244 248 249 245 239 236 240 249 257 261 265 269 269 260 251 242 229 230 244 256 263 263 259 259 260 261 262 263 261 258 255 254 257 263 266 269 271 272 273 275 275 275 275 274 273 273 273 273 274 274 274 275 275 275 275 276 276 276 275 274 272 272
240 245 248 248 246 243 242 244 248 252 257 263 265 264 255 242 232 229 237 250 259 266 262 251 247 252 258 263 264 263 261 259 257 258 260 263 266 268 269 271 271 272 273 274 274 274 273 273 272 271 271 272 272 272 272 273 274 275 275 275 275 273 271
238 244 245 246 246 246 246 246 247 251 258 263 262 260 255 244 236 239 248 255 260 264 264 255 248 250 255 259 260 259 259 259 261 262 262 262 261 263 265 267 268 269 270 271 272 272 272 273 272 271 270 269 270 271 272 274 274 274 274 273 272 272 270
238 243 245 246 246 247 248 247 247 250 256 260 261 259 255 250 249 252 255 256 259 262 265 265 261 259 260 260 259 257 257 258 260 261 261 261 260 260 261 262 263 264 265 266 266 267 268 268 269 270 270 269 269 269 270 271 271 271 271 270 270 270 270
239 244 246 247 247 248 249 246 245 247 252 258 260 257 252 250 252 256 257 258 260 263 265 265 264 263 263 262 262 261 260 260 260 260 260 259 259 259 259 260 262 262 262 262 262 262 263 264 265 266 267 268 269 269 269 269 269 269 269 269 270 270 270
241 243 244 244 243 246 249 250 249 250 253 255 254 251 248 249 252 254 257 259 261 264 265 263 261 259 258 260 262 263 264 264 264 262 261 261 261 259 257 258 261 262 263 262 262 262 262 262 264 265 267 269 269 269 269 268 268 268 269 270 271 271 271
243 244 242 242 242 247 255 261 259 256 254 253 250 247 247 251 254 256 257 259 261 263 263 262 261 259 259 259 261 262 264 265 265 264 264 264 264 263 261 260 260 262 264 263 263 262 262 262 262 265 268 271 271 269 266 264 264 266 269 272 272 272 272
241 243 244 245 247 252 260 266 265 259 255 252 249 249 252 257 258 258 259 261 263 263 262 260 260 261 262 263 264 266 267 267 267 266 264 264 264 266 267 265 263 261 262 263 263 262 263 262 261 262 264 267 269 267 264 262 263 266 270 273 273 272 271
242 243 245 249 252 257 263 266 266 261 255 252 253 256 260 262 260 259 260 262 263 264 264 262 262 262 262 262 264 265 266 268 269 268 265 264 264 265 265 266 265 263 262 263 264 264 264 264 263 262 260 260 261 263 263 263 264 267 270 271 272 271 271
246 249 253 257 258 259 261 264 264 260 254 252 255 258 260 260 258 257 258 259 262 263 264 265 266 266 265 264 263 263 263 264 266 266 265 264 263 261 262 265 267 267 265 264 264 264 266 267 267 265 263 261 260 260 261 261 262 264 266 268 269 271 271
255 258 261 263 262 262 263 263 263 261 258 257 257 257 257 256 256 255 256 258 260 261 263 264 265 266 266 266 266 265 263 262 263 263 264 264 263 263 265 268 268 267 265 263 262 262 263 265 266 265 265 264 263 262 262 262 262 262 264 265 266 267 268
263 263 263 262 262 264 265 264 263 263 263 262 261 258 255 254 254 254 256 258 259 260 261 262 262 263 263 263 264 265 265 265 264 264 264 264 265 266 267 268 269 267 265 263 262 261 260 261 263 264 264 265 265 265 265 265 265 265 265 265 265 266 266
263 263 263 263 263 264 265 265 266 266 264 262 261 259 256 253 253 254 256 258 260 261 261 262 262 263 262 262 262 263 264 265 265 264 264 264 265 266 267 269 269 269 268 267 266 265 264 263 264 265 265 266 267 267 268 268 268 268 269 269 269 268 268
262 262 262 262 263 263 264 265 266 265 264 262 261 258 255 255 256 257 259 260 261 261 261 262 262 262 262 262 263 263 264 265 265 265 265 265 266 266 268 269 270 270 269 269 268 268 268 268 268 268 268 268 269 269 270 270 270 270 270 270 269 269 269
261 262 262 262 263 263 263 263 263 263 263 262 262 259 256 258 260 262 263 263 262 262 262 263 263 262 263 263 264 265 266 266 267 267 266 266 267 267 269 270 271 272 272 271 270 270 271 271 271 271 271 271 271 271 271 272 272 272 272 272 272 272 272
261 261 262 262 262 263 263 263 263 263 263 262 262 260 259 261 263 263 263 262 262 263 263 263 263 264 265 266 266 267 267 267 267 267 268 268 269 270 271 272 274 275 275 274 274 273 273 273 274 274 274 273 273 273 273 273 273 273 274 274 275 275 275
261 261 262 263 263 263 263 263 263 262 262 260 259 259 259 259 260 259 259 259 260 261 261 263 266 268 268 268 268 268 268 267 268 268 270 271 272 273 274 275 276 277 277 277 276 275 275 275 275 274 274 274 274 274 274 274 274 274 275 275 276 276 276
258 261 262 263 264 264 264 262 261 260 259 258 257 257 256 256 255 255 257 260 261 262 264 267 269 271 271 271 270 269 267 267 270 272 274 275 276 276 276 276 277 277 277 277 276 276 276 275 275 275 274 274 274 274 274 274 274 274 275 275 275 276 276
256 258 259 258 256 255 255 256 256 256 255 255 256 256 256 255 255 258 262 266 267 267 268 269 271 272 273 272 271 268 267 268 272 276 279 280 279 279 278 277 277 277 277 276 276 276 276 276 275 275 275 274 274 274 274 274 274 274 274 275 275 276 276
258 257 255 255 254 252 251 252 253 253 253 253 254 256 256 256 257 262 268 271 270 269 269 270 272 273 274 274 273 270 269 271 275 279 282 282 281 279 278 278 277 277 277 276 276 276 276 275 275 274 274 274 273 273 273 274 274 274 275 275 275 276 277
260 259 255 252 252 252 252 252 253 253 253 253 254 256 257 258 261 266 270 271 270 269 269 270 272 273 275 276 275 274 274 275 278 280 282 281 280 279 278 278 278 277 277 277 276 275 275 274 273 273 273 273 273 273 273 274 274 274 274 275 276 277 278
259 259 257 253 251 252 253 253 253 254 254 254 255 256 258 260 263 266 268 269 270 269 269 270 272 274 277 278 278 277 277 277 278 280 280 279 278 277 277 277 277 277 277 277 276 275 274 274 273 273 273 273 273 273 274 274 274 275 275 276 277 278 279
260 259 259 257 256 256 256 256 256 257 257 257 257 258 260 262 264 266 268 269 270 270 270 271 273 275 277 278 278 277 277 278 278 278 278 278 277 276 276 276 276 276 276 275 275 274 274 274 273 273 273 272 273 273 273 274 274 275 276 277 278 279 280
Height
5774 5775 5775 5775 5775 5775 5775 5774 5774 5774 5775 5774 5774 5775 5775 5775 5776 5776 5776 5776 5776 5776 5776 5776 5776 5776 5776 5776 5776 5776 5776 5777 5777 5778 5778 5778 5778 5778 5778 5779 5779 5780 5781 5782 5782 5783 5783 5783 5783 5783 5783 5783 5783 5784 5784 5784 5785 5785 5785 5786 5786 5786 5786
5772 5773 5773 5773 5774 5774 5774 5773 5773 5773 5773 5773 5772 5772 5772 5773 5773 5773 5774 5774 5774 5774 5774 5774 5774 5774 5774 5774 5774 5774 5774 5774 5775 5775 5775 5775 5775 5775 5775 5776 5776 5777 5778 5778 5779 5780 5780 5780 5780 5780 5780 5781 5781 5781 5781 5782 5782 5782 5782 5782 5783 5783 5783
5770 5770 5771 5771 5772 5772 5772 5772 5772 5772 5772 5771 5771 5771 5771 5771 5771 5771 5772 5772 5772 5772 5772 5772 5772 5772 5772 5772 5772 5772 5772 5772 5773 5773 5773 5773 5773 5773 5773 5773 5773 5774 5774 5775 5776 5777 5777 5778 5778 5778 5778 5779 5780 5779 5779 5779 5779 5779 5779 5779 5779 5779 5779
5768 5768 5768 5769 5770 5770 5770 5770 5770 5770 5770 5770 5770 5769 5769 5769 5769 5769 5770 5770 5770 5771 5771 5771 5770 5770 5771 5771 5771 5771 5770 5770 5771 5771 5771 5771 5771 5771 5771 5771 5771 5771 5772 5772 5773 5773 5774 5774 5775 5775 5775 5777 5777 5776 5776 5777 5777 5777 5777 5777 5776 5776 5776
5765 5766 5767 5767 5767 5767 5768 5767 5767 5768 5768 5768 5769 5768 5768 5768 5768 5768 5768 5768 5768 5769 5769 5769 5769 5768 5769 5769 5769 5769 5769 5769 5769 5769 5769 5769 5769 5768 5768 5768 5768 5769 5769 5769 5769 5770 5770 5771 5771 5772 5773 5773 5774 5774 5774 5774 5774 5774 5774 5774 5774 5774 5774
5763 5764 5765 5765 5765 5765 5765 5765 5765 5766 5766 5767 5767 5767 5766 5766 5766 5766 5766 5766 5766 5767 5767 5767 5767 5767 5767 5767 5767 5767 5767 5767 5767 5767 5767 5767 5767 5766 5766 5766 5766 5766 5766 5767 5767 5767 5768 5768 5769 5769 5770 5770 5771 5771 5771 5771 5771 5771 5771 5771 5771 5771 5771
5761 5762 5763 5763 5764 5764 5763 5763 5762 5763 5764 5765 5765 5765 5764 5764 5764 5764 5764 5764 5764 5765 5765 5765 5765 5765 5765 5765 5765 5765 5765 5765 5765 5765 5765 5765 5764 5764 5764 5764 5764 5764 5764 5765 5765 5765 5766 5766 5766 5767 5767 5767 5768 5768 5768 5768 5768 5768 5768 5768 5768 5768 5768
5759 5760 5761 5761 5761 5761 5761 5761 5760 5760 5760 5762 5762 5762 5762 5762 5762 5761 5762 5762 5762 5762 5762 5763 5763 5763 5763 5763 5764 5764 5764 5764 5764 5763 5763 5763 5763 5762 5762 5762 5762 5763 5763 5763 5763 5763 5764 5764 5764 5764 5764 5764 5765 5765 5765 5765 5765 5765 5765 5765 5765 5765 5765
5756 5757 5758 5758 5759 5759 5759 5758 5757 5757 5757 5759 5759 5759 5759 5759 5759 5759 5759 5759 5759 5760 5760 5760 5760 5761 5761 5761 5762 5762 5762 5762 5762 5762 5761 5761 5761 5761 5761 5761 5761 5761 5761 5761 5761 5761 5762 5762 5762 5762 5762 5762 5762 5763 5763 5763 5763 5763 5763 5763 5763 5763 5762
5754 5754 5754 5755 5756 5756 5756 5755 5755 5755 5755 5756 5757 5757 5757 5757 5757 5757 5757 5757 5757 5757 5757 5758 5758 5759 5759 5760 5760 5760 5760 5760 5760 5760 5760 5759 5759 5759 5759 5759 5759 5759 5759 5759 5759 5760 5760 5760 5760 5760 5760 5760 5760 5761 5761 5761 5761 5761 5761 5761 5761 5760 5760
5750 5751 5751 5752 5752 5752 5753 5752 5752 5752 5753 5753 5754 5755 5755 5755 5755 5755 5755 5755 5755 5755 5755 5756 5756 5757 5757 5758 5758 5758 5758 5758 5758 5758 5758 5758 5757 5757 5757 5757 5757 5757 5757 5757 5758 5758 5758 5758 5758 5758 5758 5758 5758 5759 5759 5759 5759 5759 5759 5759 5759 5758 5758
5747 5748 5748 5748 5749 5749 5750 5750 5750 5750 5751 5751 5752 5752 5753 5753 5752 5753 5753 5753 5753 5753 5754 5754 5754 5755 5755 5755 5756 5756 5756 5756 5756 5756 5756 5756 5755 5755 5755 5755 5755 5756 5756 5756 5756 5756 5756 5756 5756 5757 5757 5757 5757 5757 5757 5757 5757 5757 5757 5757 5757 5757 5757
5744 5745 5745 5746 5746 5747 5747 5747 5748 5748 5748 5749 5749 5750 5750 5750 5750 5751 5751 5751 5752 5752 5752 5752 5752 5752 5753 5753 5753 5753 5753 5753 5754 5754 5754 5754 5754 5754 5753 5753 5754 5754 5754 5754 5754 5754 5754 5754 5755 5755 5755 5755 5755 5755 5755 5755 5755 5755 5755 5755 5755 5755 5755
5742 5742 5743 5744 5744 5745 5745 5745 5746 5746 5747 5747 5747 5748 5748 5748 5749 5749 5749 5750 5750 5750 5750 5750 5750 5750 5750 5750 5750 5750 5750 5750 5751 5751 5751 5752 5752 5752 5752 5752 5752 5752 5752 5752 5752 5753 5753 5753 5753 5753 5753 5753 5753 5753 5753 5753 5753 5753 5753 5753 5753 5753 5753
5740 5740 5741 5741 5742 5743 5743 5744 5744 5744 5745 5745 5745 5746 5746 5746 5746 5746 5747 5747 5748 5748 5748 5748 5748 5748 5748 5748 5748 5748 5748 5748 5748 5748 5749 5749 5750 5750 5750 5750 5750 5750 5750 5750 5750 5750 5751 5751 5751 5751 5751 5751 5751 5751 5751 5751 5751 5751 5751 5751 5751 5751 5751
5738 5738 5739 5739 5740 5741 5741 5742 5742 5742 5743 5743 5743 5744 5744 5744 5744 5744 5744 5745 5745 5746 5746 5746 5746 5746 5746 5747 5747 5747 5747 5747 5747 5747 5747 5747 5747 5748 5748 5748 5748 5748 5748 5748 5748 5748 5749 5749 5749 5749 5749 5749 5749 5748 5748 5748 5748 5748 5749 5749 5749 5749 5749
5735 5735 5736 5736 5737 5738 5738 5739 5740 5741 5741 5741 5741 5742 5742 5742 5741 5741 5742 5742 5743 5743 5743 5743 5743 5744 5744 5744 5745 5745 5745 5745 5745 5745 5745 5745 5745 5745 5746 5746 5746 5746 5746 5746 5746 5746 5746 5746 5746 5747 5747 5747 5746 5746 5746 5746 5746 5746 5746 5746 5746 5746 5746
5732 5732 5733 5733 5734 5735 5735 5736 5737 5738 5739 5739 5739 5739 5740 5740 5740 5740 5740 5740 5740 5740 5741 5741 5741 5741 5741 5742 5742 5743 5743 5743 5743 5743 5743 5743 5743 5743 5743 5743 5743 5743 5743 5744 5744 5744 5744 5744 5744 5744 5744 5744 5744 5743 5743 5743 5743 5743 5743 5743 5743 5743 5742
5728 5729 5729 5730 5731 5732 5732 5733 5734 5735 5736 5736 5737 5737 5737 5737 5737 5737 5737 5737 5737 5738 5738 5738 5738 5738 5738 5739 5739 5740 5740 5740 5740 5740 5740 5740 5740 5741 5740 5740 5740 5740 5741 5741 5741 5741 5741 5741 5741 5741 5741 5741 5741 5740 5740 5739 5739 5739 5739 5739 5739 5739 5739
5725 5726 5726 5727 5728 5728 5729 5730 5731 5732 5733 5733 5734 5734 5734 5735 5735 5734 5734 5734 5734 5735 5735 5735 5735 5735 5735 5736 5736 5737 5737 5737 5737 5737 5737 5737 5737 5737 5737 5737 5737 5738 5738 5738 5738 5738 5738 5738 5738 5738 5738 5738 5738 5737 5737 5736 5736 5735 5735 5735 5735 5735 5734
5722 5722 5723 5724 5724 5725 5726 5727 5728 5729 5729 5730 5731 5731 5732 5732 5732 5732 5731 5731 5731 5731 5732 5732 5732 5732 5732 5733 5733 5733 5734 5734 5734 5734 5734 5734 5735 5734 5734 5734 5734 5735 5735 5735 5735 5735 5735 5735 5735 5735 5735 5735 5734 5734 5733 5733 5732 5732 5732 5732 5731 5731 5731
5718 5719 5719 5720 5721 5721 5722 5724 5725 5725 5726 5727 5727 5728 5728 5729 5729 5728 5728 5728 5728 5728 5728 5728 5729 5729 5729 5729 5729 5730 5730 5730 5730 5730 5730 5731 5731 5731 5732 5731 5731 5731 5731 5731 5731 5732 5731 5731 5731 5732 5732 5731 5731 5730 5730 5729 5729 5728 5728 5728 5728 5727 5726
5714 5715 5715 5716 5717 5718 5718 5719 5720 5721 5722 5723 5723 5724 5724 5724 5725 5725 5724 5724 5724 5724 5724 5724 5725 5726 5726 5726 5726 5726 5726 5726 5726 5726 5726 5726 5727 5727 5727 5728 5728 5728 5728 5728 5728 5728 5727 5727 5727 5727 5727 5727 5726 5726 5725 5725 5724 5724 5723 5723 5723 5723 5722
5709 5710 5711 5712 5712 5713 5714 5715 5716 5717 5718 5718 5719 5719 5720 5720 5720 5720 5720 5720 5720 5720 5720 5720 5721 5721 5721 5721 5721 5722 5722 5722 5722 5722 5722 5722 5722 5722 5723 5723 5723 5724 5724 5724 5724 5724 5724 5722 5722 5722 5722 5721 5721 5721 5720 5720 5719 5719 5718 5718 5718 5718 5717
5704 5705 5706 5707 5708 5708 5709 5710 5711 5712 5712 5713 5714 5714 5715 5715 5715 5716 5716 5716 5716 5715 5715 5715 5716 5716 5716 5716 5716 5716 5717 5717 5717 5717 5717 5717 5717 5717 5718 5718 5718 5719 5720 5719 5718 5719 5719 5717 5716 5715 5715 5715 5715 5714 5714 5714 5714 5714 5713 5713 5712 5712 5711
5699 5699 5700 5702 5703 5703 5704 5705 5705 5705 5706 5707 5708 5708 5709 5710 5710 5711 5711 5711 5711 5711 5710 5710 5711 5711 5711 5712 5711 5711 5712 5712 5712 5712 5712 5712 5712 5712 5713 5713 5713 5713 5714 5713 5713 5713 5712 5711 5709 5709 5709 5709 5708 5708 5708 5708 5708 5708 5707 5706 5706 5705 5704
5692 5693 5694 5695 5696 5697 5698 5698 5698 5699 5700 5701 5701 5702 5703 5704 5704 5705 5705 5705 5705 5705 5705 5706 5706 5706 5706 5707 5707 5707 5707 5707 5707 5707 5707 5707 5707 5707 5707 5707 5707 5707 5707 5707 5706 5706 5706 5705 5704 5703 5703 5703 5702 5702 5702 5702 5701 5701 5700 5699 5699 5698 5698
5686 5686 5687 5688 5689 5690 5691 5691 5691 5692 5693 5694 5695 5696 5696 5697 5698 5698 5699 5699 5700 5700 5700 5701 5701 5701 5701 5701 5702 5702 5701 5701 5701 5701 5701 5701 5701 5702 5702 5701 5701 5701 5701 5700 5700 5699 5699 5698 5697 5697 5696 5696 5695 5695 5695 5694 5694 5694 5693 5692 5691 5691 5690
5679 5680 5680 5681 5682 5683 5683 5684 5685 5686 5686 5687 5688 5689 5690 5691 5691 5692 5693 5693 5694 5694 5695 5695 5695 5695 5696 5696 5696 5696 5696 5696 5695 5695 5695 5696 5696 5696 5695 5695 5695 5695 5694 5694 5693 5692 5692 5691 5690 5690 5689 5689 5688 5688 5688 5687 5687 5686 5685 5684 5684 5683 5683
5673 5673 5674 5674 5675 5676 5676 5677 5678 5679 5680 5680 5681 5682 5683 5684 5685 5686 5686 5687 5687 5688 5689 5689 5690 5690 5690 5690 5690 5689 5689 5689 5689 5689 5689 5689 5689 5689 5689 5689 5688 5688 5687 5687 5686 5686 5685 5684 5684 5683 5682 5682 5681 5681 5681 5680 5679 5679 5678 5677 5677 5676 5675
5666 5667 5668 5668 5669 5669 5670 5670 5671 5672 5673 5674 5675 5676 5677 5678 5679 5679 5680 5681 5682 5683 5683 5684 5684 5684 5684 5684 5684 5683 5683 5683 5683 5683 5683 5683 5683 5683 5683 5682 5682 5681 5680 5680 5680 5679 5679 5678 5677 5677 5676 5676 5675 5675 5674 5673 5673 5672 5671 5671 5670 5669 5668
5661 5662 5662 5663 5663 5664 5664 5664 5665 5666 5667 5668 5669 5670 5671 5672 5673 5674 5675 5676 5676 5677 5677 5677 5678 5677 5677 5677 5677 5677 5677 5677 5677 5677 5677 5676 5676 5676 5676 5675 5675 5674 5674 5673 5673 5673 5672 5672 5671 5670 5670 5669 5669 5668 5667 5667 5666 5666 5665 5664 5663 5662 5661
5657 5657 5658 5658 5658 5659 5659 5659 5659 5660 5661 5662 5663 5664 5665 5666 5667 5668 5668 5669 5669 5670 5670 5670 5671 5671 5671 5671 5671 5671 5671 5671 5671 5671 5670 5670 5669 5669 5669 5668 5668 5668 5667 5667 5667 5667 5666 5665 5665 5664 5663 5663 5662 5662 5661 5661 5660 5659 5659 5658 5657 5656 5655
5651 5652 5652 5652 5653 5653 5653 5653 5653 5654 5655 5655 5656 5657 5658 5659 5660 5660 5661 5661 5662 5662 5662 5663 5663 5664 5664 5664 5664 5664 5664 5664 5664 5664 5663 5663 5662 5662 5661 5661 5661 5661 5661 5661 5661 5660 5660 5659 5658 5658 5657 5656 5656 5655 5655 5654 5654 5653 5652 5651 5650 5649 5648
5643 5644 5645 5646 5646 5646 5646 5646 5647 5647 5648 5648 5649 5649 5650 5652 5652 5653 5653 5654 5654 5655 5655 5656 5656 5657 5657 5657 5657 5657 5657 5657 5657 5657 5656 5656 5655 5655 5654 5654 5654 5654 5654 5654 5654 5653 5653 5652 5652 5651 5651 5650 5649 5649 5648 5648 5648 5647 5646 5645 5644 5643 5642
5635 5636 5637 5637 5638 5638 5639 5639 5640 5640 5641 5641 5642 5642 5643 5644 5645 5645 5646 5647 5647 5648 5648 5648 5649 5649 5650 5650 5650 5650 5650 5649 5649 5649 5649 5649 5648 5648 5647 5647 5647 5647 5647 5647 5647 5646 5646 5646 5645 5645 5644 5643 5643 5642 5642 5642 5641 5640 5640 5639 5638 5637 5636
5627 5628 5628 5629 5630 5630 5631 5632 5632 5633 5634 5634 5635 5635 5636 5636 5637 5638 5639 5639 5640 5640 5641 5641 5642 5642 5642 5642 5642 5641 5641 5642 5642 5642 5641 5641 5641 5641 5641 5640 5640 5640 5640 5640 5639 5639 5639 5639 5638 5638 5638 5637 5637 5636 5636 5635 5635 5634 5633 5633 5632 5631 5630